FW8630 Weather Reports


time (UTC)temp
F
wind
direction
speed
knots
gust
knots
rain 1hr
in
rain 24hr
in
rain mn
in
humidity
%
barometer
mb
20260903141547 61 173 2.6 7.0 0.00 0.00 0.00 94 1010.5
20260903140045 60 198 2.6 7.0 0.00 0.00 0.00 93 1010.7
20260903134543 60 196 3.5 10.4 0.00 0.00 0.00 93 1010.9
20260903133043 60 195 2.6 7.0 0.00 0.00 0.00 93 1011.0
20260903131550 60 227 3.5 7.0 0.00 0.00 0.00 90 1011.1
20260903130039 61 229 3.5 7.8 0.00 0.00 0.00 88 1011.3
20260903124540 60 190 3.5 7.8 0.00 0.00 0.00 90 1011.3
20260903123041 60 205 3.5 10.4 0.00 0.00 0.00 91 1011.4
20260903121536 61 200 4.3 9.6 0.00 0.00 0.00 89 1011.4
20260903120039 60 228 3.5 11.3 0.00 0.00 0.00 89 1011.5
20260903114534 60 207 4.3 9.6 0.00 0.00 0.00 88 1011.5
20260903113041 61 236 3.5 8.7 0.00 0.00 0.00 86 1011.6
20260903111532 61 215 3.5 8.7 0.00 0.00 0.00 86 1011.8
20260903110035 61 232 5.2 7.8 0.00 0.00 0.00 84 1011.8
20260903104531 61 211 4.3 7.8 0.00 0.00 0.00 84 1011.8
20260903103030 61 223 3.5 10.4 0.00 0.00 0.00 83 1012.0
20260903101527 62 232 3.5 10.4 0.00 0.00 0.00 83 1012.0
20260903100027 61 263 3.5 8.7 0.00 0.00 0.00 81 1012.1
20260903094525 60 218 4.3 13.9 0.00 0.00 0.00 82 1012.2
20260903093029 60 236 3.5 10.4 0.00 0.00 0.00 80 1012.3
20260903091521 60 222 4.3 10.4 0.00 0.00 0.00 79 1012.3
20260903090021 59 240 5.2 10.4 0.00 0.00 0.00 81 1012.2
20260903084523 59 269 4.3 12.2 0.00 0.00 0.00 79 1012.3
20260903083018 58 248 3.5 9.6 0.00 0.00 0.00 81 1012.5
20260903081518 59 239 2.6 10.4 0.00 0.00 0.00 81 1012.4
20260903080016 58 205 4.3 9.6 0.00 0.00 0.00 80 1012.5
20260903074515 58 267 3.5 13.0 0.00 0.00 0.00 80 1012.5
20260903073014 58 248 3.5 12.2 0.00 0.00 0.00 82 1012.5
20260903071513 58 261 3.5 12.2 0.00 0.00 0.00 81 1012.5
20260903070012 58 238 4.3 13.9 0.00 0.00 0.00 81 1012.5
20260903064514 57 248 4.3 14.8 0.00 0.00 0.00 83 1012.6
20260903063010 57 228 4.3 13.0 0.00 0.00 0.00 83 1012.6
20260903061510 57 227 3.5 15.6 0.00 0.00 0.00 83 1012.6
20260903060014 57 238 4.3 15.6 0.00 0.00 0.00 83 1012.7
20260903054507 58 263 5.2 15.6 0.00 0.00 0.00 85 1012.6
20260903053004 57 234 7.0 15.6 0.00 0.00 0.00 84 1012.5
20260903051503 57 252 5.2 13.0 0.00 0.00 0.00 85 1012.6
20260903050101 57 262 7.8 15.6 0.00 0.00 0.00 84 1012.4
20260903044600 58 230 3.5 9.6 0.00 0.00 0.00 83 1012.4
20260903043058 58 257 5.2 15.6 0.00 0.00 0.00 85 1012.4
20260903041605 58 228 5.2 14.8 0.00 0.00 0.00 83 1012.3
20260903040053 58 257 3.5 16.5 0.00 0.00 0.00 84 1012.3
20260903034559 58 218 3.5 19.1 0.00 0.00 0.00 84 1012.4
20260903033048 58 218 5.2 13.0 0.00 0.00 0.00 83 1012.5
20260903031549 59 246 5.2 18.2 0.00 0.00 0.00 84 1012.5
20260903030044 59 275 4.3 13.0 0.00 0.00 0.00 87 1012.4
20260903024542 59 252 6.1 14.8 0.00 0.00 0.00 85 1012.4
20260903023039 59 248 4.3 13.0 0.00 0.00 0.00 85 1012.5
20260903021537 60 250 2.6 11.3 0.00 0.00 0.00 85 1012.6
20260903020049 60 215 3.5 11.3 0.00 0.00 0.00 85 1012.6
20260903014536 60 283 7.0 13.9 0.00 0.00 0.00 85 1012.6
20260903013034 60 232 2.6 10.4 0.00 0.00 0.00 84 1012.6
20260903011535 60 213 4.3 9.6 0.00 0.00 0.00 83 1012.6
20260903003051 61 243 3.5 11.3 0.00 0.00 0.00 84 1012.7
20260902234531 61 248 4.3 15.6 0.00 0.00 0.00 90 1012.8
20260902233029 61 219 5.2 14.8 0.00 0.00 0.00 91 1012.8
20260902231525 62 254 3.5 13.0 0.00 0.00 0.00 90 1012.8
20260902230024 62 244 3.5 11.3 0.00 0.00 0.00 90 1012.8
20260902224523 62 252 4.3 12.2 0.00 0.00 0.00 90 1012.8
20260902223028 62 250 2.6 10.4 0.00 0.00 0.00 90 1012.7
20260902221519 62 237 3.5 17.4 0.00 0.00 0.00 91 1012.7
20260902220020 62 224 3.5 12.2 0.00 0.00 0.00 92 1012.6
20260902214515 63 251 3.5 10.4 0.00 0.00 0.00 93 1012.6
20260902213014 63 214 3.5 7.8 0.00 0.00 0.00 93 1012.6
20260902211514 63 251 4.3 9.6 0.00 0.00 0.00 92 1012.6
20260902210113 63 244 4.3 10.4 0.00 0.00 0.00 92 1012.7
20260902204512 63 211 2.6 8.7 0.00 0.00 0.00 92 1012.6
20260902203012 63 236 3.5 9.6 0.00 0.00 0.00 92 1012.5
20260902201518 63 188 4.3 9.6 0.00 0.00 0.00 92 1012.6
20260902200011 63 225 3.5 9.6 0.00 0.00 0.00 91 1012.8
20260902194516 64 246 3.5 10.4 0.00 0.00 0.00 91 1012.7
20260902193011 64 232 3.5 8.7 0.00 0.00 0.00 91 1012.7
20260902191513 64 223 3.5 9.6 0.00 0.00 0.00 90 1012.7
20260902190009 64 220 3.5 8.7 0.00 0.00 0.00 90 1012.7
20260902184508 64 222 2.6 8.7 0.00 0.00 0.00 91 1012.7
20260902183009 64 248 2.6 6.1 0.00 0.00 0.00 92 1012.6
20260902181507 64 205 3.5 7.8 0.00 0.00 0.00 91 1012.6
20260902180008 64 199 2.6 7.0 0.00 0.00 0.00 91 1012.6
20260902174506 64 206 1.7 6.1 0.00 0.00 0.00 90 1012.7
20260902173005 65 226 2.6 7.0 0.00 0.00 0.00 91 1012.6
20260902171504 65 216 2.6 6.1 0.00 0.00 0.00 91 1012.8
20260902170004 65 206 3.5 7.8 0.00 0.00 0.00 91 1012.7
20260902164503 65 198 3.5 9.6 0.00 0.00 0.00 91 1012.6
20260902163003 65 209 5.2 12.2 0.00 0.00 0.00 90 1012.7
20260902161503 65 225 3.5 10.4 0.00 0.00 0.00 90 1012.7
20260902160004 65 173 4.3 10.4 0.00 0.00 0.00 90 1012.8
20260902154501 65 191 6.1 12.2 0.00 0.00 0.00 90 1012.9
20260902153001 65 206 4.3 13.0 0.00 0.00 0.00 90 1012.9
20260902151609 65 211 5.2 17.4 0.00 0.00 0.00 89 1013.1
20260902150100 66 181 3.5 13.9 0.00 0.00 0.00 88 1013.2
20260902144600 66 188 5.2 10.4 0.00 0.00 0.00 88 1013.2
20260902143059 66 234 5.2 11.3 0.00 0.00 0.00 87 1013.3